Time,TemperatureF,DewpointF,PressureIn,WindDirection,WindDirectionDegrees,WindSpeedMPH,WindSpeedGustMPH,Humidity,HourlyPrecipIn,Conditions,Clouds,dailyrainin,SolarRadiationWatts/m^2,SoftwareType,DateUTC
2013-01-15 00:10:00,-0.5,-15.1,30.60,ENE,69,7.0,9.0,49,0.00,,,0.00,0,Wunderground v.1.15,2013-01-15 07:10:00,
2013-01-15 00:30:00,-0.4,-15.0,30.60,SSE,155,5.0,5.0,49,0.00,,,0.00,0,Wunderground v.1.15,2013-01-15 07:30:00,
2013-01-15 00:50:00,0.0,-14.3,30.60,SW,229,7.0,19.0,50,0.00,,,0.00,0,Wunderground v.1.15,2013-01-15 07:50:00,
2013-01-15 01:00:00,-0.1,-14.4,30.60,ENE,78,9.0,9.0,50,0.00,,,0.00,0,Wunderground v.1.15,2013-01-15 08:00:00,
2013-01-15 01:11:00,-0.7,-14.5,30.59,SW,229,6.0,6.0,51,0.00,,,0.00,0,Wunderground v.1.15,2013-01-15 08:11:00,
2013-01-15 01:30:00,-0.2,-14.1,30.61,ENE,69,10.0,10.0,51,0.00,,,0.00,0,Wunderground v.1.15,2013-01-15 08:30:00,
2013-01-15 01:40:00,-1.1,-14.5,30.60,East,84,5.0,5.0,52,0.00,,,0.00,0,Wunderground v.1.15,2013-01-15 08:40:00,
2013-01-15 02:10:00,-1.5,-13.8,30.61,South,183,4.0,4.0,55,0.00,,,0.00,0,Wunderground v.1.15,2013-01-15 09:10:00,
2013-01-15 02:30:00,-0.8,-12.4,30.59,North,11,4.0,5.0,57,0.00,,,0.00,0,Wunderground v.1.15,2013-01-15 09:30:00,
2013-01-15 02:40:00,0.4,-11.3,30.59,ENE,78,9.0,11.0,57,0.00,,,0.00,0,Wunderground v.1.15,2013-01-15 09:40:00,
2013-01-15 03:00:00,2.8,-9.4,30.59,WSW,243,8.0,18.0,56,0.00,,,0.00,0,Wunderground v.1.15,2013-01-15 10:00:00,
2013-01-15 03:10:00,3.2,-9.0,30.57,NW,306,16.0,16.0,56,0.00,,,0.00,0,Wunderground v.1.15,2013-01-15 10:10:00,
2013-01-15 03:20:00,3.3,-8.9,30.57,WNW,302,18.0,18.0,56,0.00,,,0.00,0,Wunderground v.1.15,2013-01-15 10:20:00,
2013-01-15 03:50:00,2.8,-9.4,30.56,WSW,250,21.0,21.0,56,0.00,,,0.00,0,Wunderground v.1.15,2013-01-15 10:50:00,
2013-01-15 04:10:00,3.8,-7.7,30.58,NNW,330,9.0,9.0,58,0.00,,,0.00,0,Wunderground v.1.15,2013-01-15 11:10:00,
2013-01-15 04:40:00,4.7,-6.9,30.60,WNW,296,4.0,5.0,58,0.00,,,0.00,0,Wunderground v.1.15,2013-01-15 11:40:00,
2013-01-15 05:00:00,4.5,-7.0,30.57,WNW,285,18.0,18.0,58,0.00,,,0.00,0,Wunderground v.1.15,2013-01-15 12:00:00,
2013-01-15 05:20:00,4.5,-7.4,30.58,WSW,244,20.0,20.0,57,0.00,,,0.00,0,Wunderground v.1.15,2013-01-15 12:20:00,
2013-01-15 05:40:00,4.7,-6.9,30.56,West,270,23.0,30.0,58,0.00,,,0.00,0,Wunderground v.1.15,2013-01-15 12:40:00,
2013-01-15 06:00:00,6.2,-4.7,30.57,WNW,294,17.0,17.0,60,0.00,,,0.00,0,Wunderground v.1.15,2013-01-15 13:00:00,
2013-01-15 06:20:00,5.6,-5.7,30.57,West,279,17.0,17.0,59,0.00,,,0.00,0,Wunderground v.1.15,2013-01-15 13:20:00,
2013-01-15 06:30:00,5.2,-6.0,30.56,West,269,19.0,24.0,59,0.00,,,0.00,0,Wunderground v.1.15,2013-01-15 13:30:00,
2013-01-15 06:41:00,5.5,-5.4,30.57,West,279,21.0,22.0,60,0.00,,,0.00,0,Wunderground v.1.15,2013-01-15 13:41:00,
2013-01-15 06:50:00,5.3,-5.6,30.57,West,266,23.0,23.0,60,0.00,,,0.00,0,Wunderground v.1.15,2013-01-15 13:50:00,
2013-01-15 07:10:00,5.6,-5.3,30.58,West,277,23.0,23.0,60,0.00,,,0.00,0,Wunderground v.1.15,2013-01-15 14:10:00,
2013-01-15 07:21:00,6.1,-4.5,30.58,West,259,19.0,19.0,61,0.00,,,0.00,0,Wunderground v.1.15,2013-01-15 14:21:00,
2013-01-15 07:30:00,6.3,-4.6,30.58,SW,222,17.0,17.0,60,0.00,,,0.00,7,Wunderground v.1.15,2013-01-15 14:30:00,
2013-01-15 07:40:00,6.5,-4.1,30.58,WNW,286,16.0,16.0,61,0.00,,,0.00,23,Wunderground v.1.15,2013-01-15 14:40:00,
2013-01-15 07:50:00,7.1,-3.5,30.58,WNW,297,14.0,14.0,61,0.00,,,0.00,30,Wunderground v.1.15,2013-01-15 14:50:00,
2013-01-15 08:01:00,7.9,-2.8,30.58,West,272,14.0,14.0,61,0.00,,,0.00,35,Wunderground v.1.15,2013-01-15 15:01:00,
2013-01-15 08:10:00,8.1,-1.9,30.57,WNW,300,14.0,14.0,63,0.00,,,0.00,63,Wunderground v.1.15,2013-01-15 15:10:00,
2013-01-15 08:21:00,9.2,-1.2,30.56,WSW,244,14.0,16.0,62,0.00,,,0.00,81,Wunderground v.1.15,2013-01-15 15:21:00,
2013-01-15 08:30:00,10.2,-0.6,30.57,NW,305,16.0,17.0,61,0.00,,,0.00,114,Wunderground v.1.15,2013-01-15 15:30:00,
2013-01-15 08:41:00,11.7,0.8,30.58,NW,315,13.0,19.0,61,0.00,,,0.00,116,Wunderground v.1.15,2013-01-15 15:41:00,
2013-01-15 08:50:00,12.0,1.1,30.58,WNW,296,13.0,20.0,61,0.00,,,0.00,142,Wunderground v.1.15,2013-01-15 15:50:00,
2013-01-15 09:01:00,12.0,0.0,30.57,West,276,15.0,17.0,58,0.00,,,0.00,246,Wunderground v.1.15,2013-01-15 16:01:00,
2013-01-15 09:10:00,12.2,0.6,30.57,NW,304,13.0,15.0,59,0.00,,,0.00,148,Wunderground v.1.15,2013-01-15 16:10:00,
2013-01-15 09:30:00,13.3,0.9,30.57,WSW,257,18.0,24.0,57,0.00,,,0.00,172,Wunderground v.1.15,2013-01-15 16:30:00,
2013-01-15 09:50:00,13.3,1.6,30.58,WNW,292,14.0,14.0,59,0.00,,,0.00,387,Wunderground v.1.15,2013-01-15 16:50:00,
2013-01-15 10:10:00,17.4,3.6,30.57,West,261,16.0,19.0,54,0.00,,,0.00,401,Wunderground v.1.15,2013-01-15 17:10:00,
2013-01-15 10:30:00,16.1,3.1,30.56,WNW,289,16.0,16.0,56,0.00,,,0.00,207,Wunderground v.1.15,2013-01-15 17:30:00,
2013-01-15 10:40:00,15.8,3.6,30.56,NW,304,14.0,14.0,58,0.00,,,0.00,146,Wunderground v.1.15,2013-01-15 17:40:00,
2013-01-15 11:00:00,16.7,5.2,30.55,West,260,15.0,28.0,60,0.00,,,0.00,162,Wunderground v.1.15,2013-01-15 18:00:00,
2013-01-15 11:20:00,17.1,5.6,30.54,WSW,253,20.0,21.0,60,0.00,,,0.00,151,Wunderground v.1.15,2013-01-15 18:20:00,
2013-01-15 11:30:00,16.8,5.3,30.54,West,269,22.0,22.0,60,0.00,,,0.00,160,Wunderground v.1.15,2013-01-15 18:30:00,
2013-01-15 11:40:00,17.0,5.5,30.54,WSW,253,20.0,20.0,60,0.00,,,0.00,211,Wunderground v.1.15,2013-01-15 18:40:00,
2013-01-15 11:50:00,18.7,6.7,30.53,NW,321,18.0,18.0,59,0.00,,,0.00,283,Wunderground v.1.15,2013-01-15 18:50:00,
2013-01-15 12:10:00,19.7,6.5,30.52,West,264,23.0,25.0,56,0.00,,,0.00,396,Wunderground v.1.15,2013-01-15 19:10:00,
2013-01-15 12:30:00,19.7,7.3,30.51,WNW,303,24.0,24.0,58,0.00,,,0.00,411,Wunderground v.1.15,2013-01-15 19:30:00,
2013-01-15 12:50:00,21.1,8.2,30.51,WNW,286,18.0,18.0,57,0.00,,,0.00,306,Wunderground v.1.15,2013-01-15 19:50:00,
2013-01-15 13:10:00,21.1,7.8,30.51,WNW,301,21.0,21.0,56,0.00,,,0.00,285,Wunderground v.1.15,2013-01-15 20:10:00,
2013-01-15 13:21:00,20.6,7.8,30.50,West,281,20.0,23.0,57,0.00,,,0.00,225,Wunderground v.1.15,2013-01-15 20:21:00,
2013-01-15 13:30:00,21.8,8.5,30.51,WNW,298,19.0,19.0,56,0.00,,,0.00,378,Wunderground v.1.15,2013-01-15 20:30:00,
2013-01-15 13:50:00,22.6,9.6,30.51,NW,318,15.0,15.0,57,0.00,,,0.00,315,Wunderground v.1.15,2013-01-15 20:50:00,
2013-01-15 14:00:00,22.2,8.9,30.52,NW,311,12.0,12.0,56,0.00,,,0.00,385,Wunderground v.1.15,2013-01-15 21:00:00,
2013-01-15 14:10:00,23.1,10.9,30.52,NNW,327,12.0,12.0,59,0.00,,,0.00,243,Wunderground v.1.15,2013-01-15 21:10:00,
2013-01-15 14:20:00,24.3,10.0,30.52,SSE,167,8.0,8.0,54,0.00,,,0.00,211,Wunderground v.1.15,2013-01-15 21:20:00,
2013-01-15 14:30:00,23.2,9.4,30.52,West,259,4.0,8.0,55,0.00,,,0.00,223,Wunderground v.1.15,2013-01-15 21:30:00,
2013-01-15 14:40:00,23.1,10.9,30.51,NNE,32,4.0,17.0,59,0.00,,,0.00,172,Wunderground v.1.15,2013-01-15 21:40:00,
2013-01-15 14:50:00,21.6,9.8,30.51,ENE,61,11.0,11.0,60,0.00,,,0.00,181,Wunderground v.1.15,2013-01-15 21:50:00,
2013-01-15 15:10:00,21.1,10.5,30.52,SE,132,4.0,4.0,63,0.00,,,0.00,146,Wunderground v.1.15,2013-01-15 22:10:00,
2013-01-15 15:21:00,22.1,10.7,30.52,South,177,5.0,8.0,61,0.00,,,0.00,100,Wunderground v.1.15,2013-01-15 22:21:00,
2013-01-15 15:30:00,22.4,10.2,30.52,SSE,159,5.0,5.0,59,0.00,,,0.00,84,Wunderground v.1.15,2013-01-15 22:30:00,
2013-01-15 15:50:00,23.4,11.5,30.51,SSE,155,0.0,0.0,60,0.00,,,0.00,63,Wunderground v.1.15,2013-01-15 22:50:00,
2013-01-15 16:00:00,23.3,11.8,30.51,SE,137,3.0,3.0,61,0.00,,,0.00,65,Wunderground v.1.15,2013-01-15 23:00:00,
2013-01-15 16:10:00,23.7,12.6,30.52,SSE,166,1.0,1.0,62,0.00,,,0.00,30,Wunderground v.1.15,2013-01-15 23:10:00,
2013-01-15 16:20:00,21.7,9.9,30.51,ENE,71,4.0,8.0,60,0.00,,,0.00,32,Wunderground v.1.15,2013-01-15 23:20:00,
2013-01-15 16:30:00,19.6,9.4,30.52,WSW,238,5.0,5.0,64,0.00,,,0.00,23,Wunderground v.1.15,2013-01-15 23:30:00,
2013-01-15 16:40:00,19.9,10.0,30.52,West,268,3.0,14.0,65,0.00,,,0.00,18,Wunderground v.1.15,2013-01-15 23:40:00,
2013-01-15 17:00:00,21.2,9.8,30.52,West,262,17.0,24.0,61,0.00,,,0.00,0,Wunderground v.1.15,2013-01-16 00:00:00,
2013-01-15 17:20:00,21.7,10.3,30.50,West,279,19.0,23.0,61,0.00,,,0.00,0,Wunderground v.1.15,2013-01-16 00:20:00,
2013-01-15 17:40:00,21.4,10.0,30.50,NW,312,17.0,17.0,61,0.00,,,0.00,0,Wunderground v.1.15,2013-01-16 00:40:00,
2013-01-15 18:00:00,20.4,10.1,30.52,East,88,4.0,4.0,64,0.00,,,0.00,0,Wunderground v.1.15,2013-01-16 01:00:00,
2013-01-15 18:10:00,20.0,10.1,30.52,WNW,300,2.0,4.0,65,0.00,,,0.00,0,Wunderground v.1.15,2013-01-16 01:10:00,
2013-01-15 18:30:00,20.6,10.7,30.53,North,350,6.0,7.0,65,0.00,,,0.00,0,Wunderground v.1.15,2013-01-16 01:30:00,
2013-01-15 18:50:00,16.7,7.0,30.54,East,79,5.0,5.0,65,0.00,,,0.00,0,Wunderground v.1.15,2013-01-16 01:50:00,
2013-01-15 19:10:00,16.6,8.2,30.53,NW,314,3.0,3.0,69,0.00,,,0.00,0,Wunderground v.1.15,2013-01-16 02:10:00,
2013-01-15 19:30:00,16.7,8.3,30.52,East,84,2.0,5.0,69,0.00,,,0.00,0,Wunderground v.1.15,2013-01-16 02:30:00,
2013-01-15 19:41:00,15.9,7.8,30.52,NW,310,2.0,4.0,70,0.00,,,0.00,0,Wunderground v.1.15,2013-01-16 02:41:00,
2013-01-15 19:50:00,16.3,8.5,30.52,NNW,332,5.0,6.0,71,0.00,,,0.00,0,Wunderground v.1.15,2013-01-16 02:50:00,
2013-01-15 20:01:00,16.7,8.6,30.52,NW,324,4.0,6.0,70,0.00,,,0.00,0,Wunderground v.1.15,2013-01-16 03:01:00,
2013-01-15 20:10:00,16.6,8.2,30.53,NNE,12,7.0,7.0,69,0.00,,,0.00,0,Wunderground v.1.15,2013-01-16 03:10:00,
2013-01-15 20:30:00,15.5,7.5,30.55,North,360,4.0,4.0,70,0.00,,,0.00,0,Wunderground v.1.15,2013-01-16 03:30:00,
2013-01-15 20:50:00,15.7,8.0,30.55,NNW,346,1.0,2.0,71,0.00,,,0.00,0,Wunderground v.1.15,2013-01-16 03:50:00,
2013-01-15 21:01:00,15.9,8.2,30.56,North,355,3.0,3.0,71,0.00,,,0.00,0,Wunderground v.1.15,2013-01-16 04:01:00,
2013-01-15 21:10:00,16.1,8.0,30.55,North,360,2.0,3.0,70,0.00,,,0.00,0,Wunderground v.1.15,2013-01-16 04:10:00,
2013-01-15 21:30:00,16.4,8.6,30.55,ESE,111,1.0,1.0,71,0.00,,,0.00,0,Wunderground v.1.15,2013-01-16 04:30:00,
2013-01-15 21:50:00,18.5,11.6,30.54,WNW,290,4.0,6.0,74,0.00,,,0.00,0,Wunderground v.1.15,2013-01-16 04:50:00,
2013-01-15 22:10:00,21.3,11.7,30.52,WNW,294,8.0,8.0,66,0.00,,,0.00,0,Wunderground v.1.15,2013-01-16 05:10:00,
2013-01-15 22:30:00,21.7,12.4,30.51,WSW,250,6.0,6.0,67,0.00,,,0.00,0,Wunderground v.1.15,2013-01-16 05:30:00,
2013-01-15 22:40:00,21.8,12.9,30.51,West,269,6.0,11.0,68,0.00,,,0.00,0,Wunderground v.1.15,2013-01-16 05:40:00,
2013-01-15 23:00:00,23.8,14.8,30.51,NW,316,8.0,8.0,68,0.00,,,0.00,0,Wunderground v.1.15,2013-01-16 06:00:00,
2013-01-15 23:20:00,24.5,15.4,30.49,NNW,341,13.0,14.0,68,0.00,,,0.00,0,Wunderground v.1.15,2013-01-16 06:20:00,
2013-01-15 23:30:00,22.8,12.1,30.50,SE,142,8.0,8.0,63,0.00,,,0.00,0,Wunderground v.1.15,2013-01-16 06:30:00,
2013-01-15 23:40:00,19.7,11.5,30.50,ENE,64,4.0,5.0,70,0.00,,,0.00,0,Wunderground v.1.15,2013-01-16 06:40:00,
2013-01-15 23:50:00,21.2,12.6,30.49,NE,41,7.0,7.0,69,0.00,,,0.00,0,Wunderground v.1.15,2013-01-16 06:50:00,